Regional Weather Roundup
Issued by NWS

Home | Current Version | Previous Version | Graphics & Text | Print | Product List | Glossary On
Versions: 1 2 3 4 5 6 7 8 9 10 11 12 13 14 15 16 17 18 19 20 21 22 23 24 25 26 27 28 29 30 31 32 33 34 35 36 37 38 39 40 41 42 43 44 45 46 47 48 49 50
000
ASUS43 KLOT 221106
RWRIL

ILLINOIS REGIONAL WEATHER ROUNDUP
NATIONAL WEATHER SERVICE CHICAGO/ROMEOVILLE IL
600 AM CDT TUE JUL 22 2014

NOTE: "FAIR" INDICATES FEW OR NO CLOUDS BELOW 12,000 FEET WITH NO
SIGNIFICANT WEATHER AND/OR OBSTRUCTIONS TO VISIBILITY.

* THESE STATIONS ARE NOT UNDER NWS QUALITY CONTROL. THEY ALSO MAY NOT
  REPORT WEATHER SUCH AS PRECIPITATION OR FOG.

ILZ001-002-007-009-015-016-024-221200-
NORTHWEST ILLINOIS

CITY           SKY/WX    TMP DP  RH WIND       PRES   REMARKS
MOLINE         CLEAR     73  66  78 S10       29.99F
STERLING*      CLEAR     70  64  83 CALM      30.03S
SAVANNA*       CLEAR     71  66  85 SE9       29.98F HAZE
$$

ILZ003-004-008-010-011-017-018-221200-
NORTH CENTRAL ILLINOIS

CITY           SKY/WX    TMP DP  RH WIND       PRES   REMARKS
ROCKFORD       MOCLDY    70  65  84 S10       30.03F
ROCHELLE*      PTCLDY    69  65  86 S8        30.04S
$$

ILZ005-006-012>014-019>023-221200-
NORTHEAST ILLINOIS

CITY           SKY/WX    TMP DP  RH WIND       PRES   REMARKS
CHICAGO-OHARE  PTCLDY    71  62  73 SW9       30.06R
CHICAGO-MIDWAY CLEAR     72  65  78 SW7       30.06R
AURORA         CLEAR     66  63  90 S7        30.06R FOG
JOLIET*        CLEAR     66  63  90 CALM      30.09R
WAUKEGAN       CLEAR     68  64  87 S8        30.03S
DUPAGE AIRPORT CLEAR     67  64  90 S8        30.05S
KANKAKEE*      CLEAR     64  63  94 S6        30.09S FOG
WHEELING       CLEAR     72  64  76 S7        30.07R
MORRIS*        CLEAR     65  65 100 CALM      30.07R FOG
ROMEOVILLE*    CLEAR     65  64  94 SW5       30.08R
NORTHERLY ISL    N/A     73  62  68 S6          N/A
$$

LMZ740>746-221200-
SOUTHERN LAKE MICHIGAN

STATION/POSITION SKY/WX   TEMP    WIND        PRES    VSBY  WAVE
                          AIR SEA DIR/SP/G                  HT/PER
                          (F)     (DEG/KT/KT) (MB)    (MI)  (FT/S)
SOUTHERN BUOY              70 69  190/ 10/ 12 1017.4R         1/ 3
WAUKEGAN HARBOR            68     200/  7/  8 1018.3S
HARRISON CRIB              72     200/ 13/ 15   N/A
BURNHAM HARBOR             72     250/  5/ 10   N/A
CALUMET HARBOR             70     180/  3/  7 1016.7S
BURNS HARBOR               69     190/  8/ 10 1018.6S
MICHIGAN CITY              70     150/ 11/ 14   N/A
$$

ILZ025>027-034>036-040-047-049-050-058-095>099-221200-
WEST-CENTRAL ILLINOIS

CITY           SKY/WX    TMP DP  RH WIND       PRES   REMARKS
QUINCY         CLEAR     70  66  87 S8        30.05R FOG
JACKSONVILLE*  CLEAR     71  67  88 S7        30.08S
PITTSFIELD*    CLEAR     69  66  89 S5        30.08R FOG
$$

ILZ028>032-037-038-041>044-048-051>054-059>061-221200-
CENTRAL ILLINOIS

CITY           SKY/WX    TMP DP  RH WIND       PRES   REMARKS
BLOOMINGTON    CLEAR     64  61  90 S8        30.10S
DECATUR        CLEAR     67  63  87 S5        30.10R FOG
PEORIA         CLEAR     69  64  84 S6        30.06S HAZE
LINCOLN*       CLEAR     66  64  93 S3        30.05F FOG
SPRINGFIELD    CLEAR     71  65  81 S8        30.08R
TAYLORVILLE    NOT AVBL
$$

ILZ033-039-045-046-055>057-062-063-221200-
EAST-CENTRAL ILLINOIS

CITY           SKY/WX    TMP DP  RH WIND       PRES   REMARKS
CHAMPAIGN      CLEAR     65  63  93 S5        30.11R FOG
RANTOUL*       CLEAR     64  60  90 CALM      30.11S FOG
MATTOON        CLEAR     67  64  90 S5        30.10S FOG
$$

ILZ079-100>102-221200-
SOUTHWEST ILLINOIS

CITY           SKY/WX    TMP DP  RH WIND       PRES   REMARKS
ALTON          CLEAR     63  63 100 CALM      30.09S FOG
BELLEVILLE     CLEAR     64  64 100 NE1       30.09R FOG
CAHOKIA*       CLEAR     67  64  90 S5        30.09S
$$

ILZ064>066-069>071-074>076-080>082-084>086-088>090-092>094-221200-
SOUTH-CENTRAL ILLINOIS

CITY           SKY/WX    TMP DP  RH WIND       PRES   REMARKS
CARBONDALE     FOG       63  61  93 CALM      30.10R VSB 3/4
CAIRO*         FOG       66  64  93 CALM      30.10S VSB 3/4
MARION         FOG       66  66 100 CALM      30.11R VSB 1
MT. VERNON     CLEAR     63  57  82 CALM      30.11S
CENTRALIA*     CLEAR     61  59  94 CALM      30.11R FOG
METROPOLIS*    CLEAR     65  63  95 CALM      30.10R FOG
$$

ILZ067-068-072-073-078-083-087-091-221200-
SOUTHEAST ILLINOIS

CITY           SKY/WX    TMP DP  RH WIND       PRES   REMARKS
FLORA*         FOG       63  61  94 CALM      30.11R VSB 1/4
$$

ABBREVIATIONS USED IN REMARKS
   TC - TEMPERATURE IN CELSIUS
  WCI - WIND CHILL INDEX
   HX - HEAT INDEX
  VSB - VISIBILITY
$$




USA.gov is the U.S. government's official web portal to all federal, state and local government web resources and services.